Fort Knox, KY

8:25 AM EST on November 23, 2017 (GMT -0500)
Godman Army Air Field

Weather History for KFTK - March, 2013

Change the Weather History Date:

Sunday, March 10, 2013

  Actual Average Record
Temperature  
Mean Temperature 59 °F -  
Max Temperature 68 °F 49 °F 76 °F (2009)
Min Temperature 50 °F 31 °F 19 °F (2001)
Degree Days  
Heating Degree Days 6    
Growing Degree Days 9 (Base 50)    
Moisture  
Dew Point 37 °F    
Average Humidity 48    
Maximum Humidity 88    
Minimum Humidity 30    
Precipitation  
Precipitation 0.05 in - - ()
Sea Level Pressure  
Sea Level Pressure 29.89 in    
Wind  
Wind Speed 11 mph (SSE)    
Max Wind Speed 22 mph    
Max Gust Speed 33 mph    
Visibility 10 miles    
Events Rain    
Averages and records for this station are not official NWS values.
T = Trace of Precipitation, MM = Missing Value Source: NWS Daily Summary

Daily Weather History Graph

Daily Weather History Graph

Search for Another Location

Airport or City:

Trip Planner

Search our weather history database for the weather conditions in past years. The results will help you decide how hot, cold, wet, or windy it might be!

Date:

Astronomy

Mar. 10, 2013 Rise Set
Actual Time 8:02 AM EDT 7:46 PM EDT
Civil Twilight 7:35 AM EDT 8:12 PM EDT
Nautical Twilight 7:05 AM EDT 8:43 PM EDT
Astronomical Twilight 6:34 AM EDT 9:13 PM EDT
Moon 7:01 AM EDT (3/10) 6:53 PM EDT (3/10)
Length of Visible Light 12h 36m
Length of Day
11h 44m
Waning Crescent, 2% of the Moon is Illuminated
Mar 10
Waning Crescent
Mar 11
New
Mar 19
First Quarter
Mar 27
Full
Apr 3
Last Quarter

Hourly Weather History & Observations

Time (EDT) Temp. Dew Point Humidity Pressure Visibility Wind Dir Wind Speed Gust Speed Precip Events Conditions
12:55 AM 53.6 °F 33.6 °F 47% 30.03 in 10.0 mi SSE 10.4 mph - N/A   Overcast
1:55 AM 50.4 °F 33.1 °F 52% 30.03 in 10.0 mi SE 6.9 mph - N/A   Clear
3:55 AM 52.0 °F 33.4 °F 49% 30.00 in 10.0 mi SSE 11.5 mph - N/A   Overcast
4:55 AM 52.0 °F 32.5 °F 48% 29.99 in 10.0 mi South 11.5 mph - N/A   Overcast
5:55 AM 51.1 °F 32.4 °F 49% 30.00 in 10.0 mi South 5.8 mph - N/A   Overcast
6:55 AM 50.4 °F 32.9 °F 51% 30.00 in 10.0 mi SSE 8.1 mph - N/A   Overcast
7:55 AM 52.7 °F 32.9 °F 47% 30.01 in 10.0 mi South 10.4 mph - N/A   Clear
8:55 AM 53.2 °F 33.3 °F 47% 30.01 in 10.0 mi South 12.7 mph - N/A   Partly Cloudy
9:55 AM 55.2 °F 34.2 °F 45% 30.00 in 10.0 mi SSE 11.5 mph - N/A   Overcast
10:55 AM 57.9 °F 34.7 °F 42% 30.01 in 10.0 mi South 11.5 mph - N/A   Overcast
11:55 AM 60.6 °F 34.9 °F 38% 29.97 in 10.0 mi SSE 11.5 mph 20.7 mph N/A   Overcast
12:55 PM 62.8 °F 35.6 °F 36% 29.98 in 10.0 mi South 13.8 mph 23.0 mph N/A   Overcast
1:55 PM 66.0 °F 35.6 °F 32% 29.96 in 10.0 mi SSE 15.0 mph - N/A   Overcast
2:55 PM 68.2 °F 35.6 °F 30% 29.89 in 10.0 mi South 20.7 mph 27.6 mph N/A   Clear
3:55 PM 67.5 °F 34.5 °F 30% 29.90 in 10.0 mi South 19.6 mph - N/A   Overcast
4:55 PM 66.6 °F 34.5 °F 31% 29.86 in 10.0 mi SSE 12.7 mph - N/A   Scattered Clouds
5:55 PM 65.7 °F 33.6 °F 30% 29.84 in 10.0 mi SE 13.8 mph - N/A   Scattered Clouds
6:55 PM 64.6 °F 34.0 °F 32% 29.83 in 10.0 mi SE 10.4 mph - N/A   Scattered Clouds
7:55 PM 64.2 °F 33.3 °F 32% 29.80 in 10.0 mi SE 13.8 mph - N/A   Mostly Cloudy
8:53 PM 64.4 °F 33.8 °F 32% 29.80 in 10.0 mi SE 13.8 mph 23.0 mph N/A   Mostly Cloudy
8:55 PM 64.0 °F 33.3 °F 32% 29.80 in 10.0 mi SSE 16.1 mph - 0.00 in   Mostly Cloudy
9:12 PM 64.4 °F 33.8 °F 32% 29.81 in 10.0 mi SSE 16.1 mph - N/A   Light Drizzle
9:23 PM 64.4 °F 33.8 °F 32% 29.81 in 10.0 mi SSE 16.1 mph - N/A   Overcast
9:55 PM 63.9 °F 34.0 °F 33% 29.82 in 10.0 mi SSE 21.9 mph 28.8 mph 0.00 in   Mostly Cloudy
10:16 PM 62.6 °F 37.4 °F 39% 29.83 in 10.0 mi South 15.0 mph 28.8 mph N/A Rain Light Rain
10:26 PM 60.8 °F 37.4 °F 42% 29.84 in 10.0 mi SSW 10.4 mph - N/A   Overcast
10:36 PM 60.8 °F 39.2 °F 45% 29.85 in 10.0 mi SSW 10.4 mph - N/A Rain Light Rain
10:55 PM 56.5 °F 45.0 °F 65% 29.86 in 10.0 mi South 15.0 mph 33.4 mph 0.01 in Rain Light Rain
11:32 PM 53.6 °F 46.4 °F 77% 29.84 in 10.0 mi SE 4.6 mph - N/A   Overcast
11:55 PM 52.7 °F 47.1 °F 81% 29.83 in 10.0 mi ESE 4.6 mph - 0.02 in   Overcast
12:00 AM 53.6 °F 46.4 °F 77% 29.84 in 10.0 mi SE 4.6 mph - N/A Rain Light Rain
12:40 AM 53.6 °F 46.4 °F 77% 29.81 in 10.0 mi ESE 3.5 mph - N/A   Overcast
12:48 AM 51.8 °F 48.2 °F 88% 29.81 in 10.0 mi SE 3.5 mph - N/A Rain Light Rain
12:55 AM 52.3 °F 47.5 °F 84% 29.80 in 10.0 mi East 3.5 mph - 0.02 in Rain Light Rain
12:59 AM 51.8 °F 48.2 °F 88% 29.80 in 10.0 mi East 3.5 mph - N/A   Overcast